Time,TemperatureF,DewpointF,PressureIn,WindDirection,WindDirectionDegrees,WindSpeedMPH,WindSpeedGustMPH,Humidity,HourlyPrecipIn,Conditions,Clouds,dailyrainin,SoftwareType,DateUTC
2013-02-19 00:02:00,33.0,-99.9,-100.00,NE,40,3.0,4.0,-999,-99.99,,,-99.99,,2013-02-19 05:02:00,
2013-02-19 00:13:00,33.0,-99.9,-100.00,NE,40,3.0,4.0,-999,-99.99,,,-99.99,,2013-02-19 05:13:00,
2013-02-19 00:23:00,33.0,-99.9,-100.00,NE,35,4.0,5.0,-999,-99.99,,,-99.99,,2013-02-19 05:23:00,
2013-02-19 00:33:00,33.0,-99.9,-100.00,NE,40,4.0,6.0,-999,-99.99,,,-99.99,,2013-02-19 05:33:00,
2013-02-19 00:43:00,33.0,-99.9,-100.00,NE,40,4.0,6.0,-999,-99.99,,,-99.99,,2013-02-19 05:43:00,
2013-02-19 00:53:00,33.0,-99.9,-100.00,NNE,20,4.0,6.0,-999,-99.99,,,-99.99,,2013-02-19 05:53:00,
2013-02-19 01:03:00,33.0,-99.9,-100.00,NNE,25,4.0,5.0,-999,-99.99,,,-99.99,,2013-02-19 06:03:00,
2013-02-19 01:12:00,33.0,-99.9,-100.00,NNE,25,4.0,5.0,-999,-99.99,,,-99.99,,2013-02-19 06:12:00,
2013-02-19 01:22:00,33.0,-99.9,-100.00,North,5,4.0,9.0,-999,-99.99,,,-99.99,,2013-02-19 06:22:00,
2013-02-19 01:33:00,33.0,-99.9,-100.00,North,0,5.0,11.0,-999,-99.99,,,-99.99,,2013-02-19 06:33:00,
2013-02-19 01:42:00,33.0,-99.9,-100.00,North,0,5.0,11.0,-999,-99.99,,,-99.99,,2013-02-19 06:42:00,
2013-02-19 01:53:00,33.0,-99.9,-100.00,North,5,6.0,10.0,-999,-99.99,,,-99.99,,2013-02-19 06:53:00,
2013-02-19 02:02:00,33.0,-99.9,-100.00,North,5,4.0,10.0,-999,-99.99,,,-99.99,,2013-02-19 07:02:00,
2013-02-19 02:12:00,33.0,-99.9,-100.00,North,5,4.0,10.0,-999,-99.99,,,-99.99,,2013-02-19 07:12:00,
2013-02-19 02:22:00,33.0,-99.9,-100.00,North,350,8.0,11.0,-999,-99.99,,,-99.99,,2013-02-19 07:22:00,
2013-02-19 02:33:00,33.0,-99.9,-100.00,North,350,8.0,12.0,-999,-99.99,,,-99.99,,2013-02-19 07:33:00,
2013-02-19 02:42:00,33.0,-99.9,-100.00,North,350,8.0,12.0,-999,-99.99,,,-99.99,,2013-02-19 07:42:00,
2013-02-19 02:52:00,32.0,-99.9,-100.00,North,355,6.0,16.0,-999,-99.99,,,-99.99,,2013-02-19 07:52:00,
2013-02-19 03:02:00,32.0,-99.9,-100.00,North,355,6.0,19.0,-999,-99.99,,,-99.99,,2013-02-19 08:02:00,
2013-02-19 03:12:00,32.0,-99.9,-100.00,North,355,6.0,19.0,-999,-99.99,,,-99.99,,2013-02-19 08:12:00,
2013-02-19 03:22:00,32.0,-99.9,-100.00,North,355,9.0,21.0,-999,-99.99,,,-99.99,,2013-02-19 08:22:00,
2013-02-19 03:32:00,32.0,-99.9,-100.00,North,350,12.0,22.0,-999,-99.99,,,-99.99,,2013-02-19 08:32:00,
2013-02-19 03:42:00,32.0,-99.9,-100.00,North,350,12.0,22.0,-999,-99.99,,,-99.99,,2013-02-19 08:42:00,
2013-02-19 03:52:00,31.0,-99.9,-100.00,ENE,60,7.0,18.0,-999,-99.99,,,-99.99,,2013-02-19 08:52:00,
2013-02-19 04:02:00,31.0,-99.9,-100.00,NNW,340,10.0,17.0,-999,-99.99,,,-99.99,,2013-02-19 09:02:00,
2013-02-19 04:11:00,31.0,-99.9,-100.00,NNW,340,10.0,17.0,-999,-99.99,,,-99.99,,2013-02-19 09:11:00,
2013-02-19 04:22:00,31.0,-99.9,-100.00,NNW,340,11.0,20.0,-999,-99.99,,,-99.99,,2013-02-19 09:22:00,
2013-02-19 04:32:00,30.0,-99.9,-100.00,North,355,14.0,24.0,-999,-99.99,,,-99.99,,2013-02-19 09:32:00,
2013-02-19 04:42:00,30.0,-99.9,-100.00,North,355,14.0,24.0,-999,-99.99,,,-99.99,,2013-02-19 09:42:00,
2013-02-19 04:53:00,30.0,-99.9,-100.00,NNW,340,10.0,23.0,-999,-99.99,,,-99.99,,2013-02-19 09:53:00,
2013-02-19 05:02:00,30.0,-99.9,-100.00,North,355,14.0,26.0,-999,-99.99,,,-99.99,,2013-02-19 10:02:00,
2013-02-19 05:11:00,30.0,-99.9,-100.00,North,355,14.0,26.0,-999,-99.99,,,-99.99,,2013-02-19 10:11:00,
2013-02-19 05:22:00,29.0,-99.9,-100.00,NNW,335,10.0,27.0,-999,-99.99,,,-99.99,,2013-02-19 10:22:00,
2013-02-19 05:32:00,29.0,-99.9,-100.00,NNW,335,13.0,28.0,-999,-99.99,,,-99.99,,2013-02-19 10:32:00,
2013-02-19 05:42:00,29.0,-99.9,-100.00,NNW,335,13.0,28.0,-999,-99.99,,,-99.99,,2013-02-19 10:42:00,
2013-02-19 05:52:00,29.0,-99.9,-100.00,NNW,335,9.0,27.0,-999,-99.99,,,-99.99,,2013-02-19 10:52:00,
2013-02-19 06:02:00,28.0,-99.9,-100.00,NNW,330,14.0,26.0,-999,-99.99,,,-99.99,,2013-02-19 11:02:00,
2013-02-19 06:12:00,28.0,-99.9,-100.00,NNW,330,14.0,26.0,-999,-99.99,,,-99.99,,2013-02-19 11:12:00,
2013-02-19 06:22:00,27.0,-99.9,-100.00,North,350,14.0,30.0,-999,-99.99,,,-99.99,,2013-02-19 11:22:00,
2013-02-19 06:32:00,26.0,-99.9,-100.00,NNW,330,12.0,29.0,-999,-99.99,,,-99.99,,2013-02-19 11:32:00,
2013-02-19 06:42:00,26.0,-99.9,-100.00,NNW,330,12.0,29.0,-999,-99.99,,,-99.99,,2013-02-19 11:42:00,
2013-02-19 06:52:00,24.0,-99.9,-100.00,NNW,345,15.0,27.0,-999,-99.99,,,-99.99,,2013-02-19 11:52:00,
2013-02-19 07:02:00,23.0,-99.9,-100.00,NNW,330,24.0,84.0,-999,-99.99,,,-99.99,,2013-02-19 12:02:00,
2013-02-19 07:12:00,23.0,-99.9,-100.00,NNW,330,24.0,84.0,-999,-99.99,,,-99.99,,2013-02-19 12:12:00,
2013-02-19 07:22:00,23.0,-99.9,-100.00,NNW,330,14.0,77.0,-999,-99.99,,,-99.99,,2013-02-19 12:22:00,
2013-02-19 07:33:00,22.0,-99.9,-100.00,North,10,22.0,126.0,-999,-99.99,,,-99.99,,2013-02-19 12:33:00,
2013-02-19 07:42:00,22.0,-99.9,-100.00,North,10,22.0,126.0,-999,-99.99,,,-99.99,,2013-02-19 12:42:00,
2013-02-19 07:53:00,21.0,-99.9,-100.00,NW,325,17.0,37.0,-999,-99.99,,,-99.99,,2013-02-19 12:53:00,
2013-02-19 08:02:00,21.0,-99.9,-100.00,NW,320,22.0,85.0,-999,-99.99,,,-99.99,,2013-02-19 13:02:00,
2013-02-19 08:11:00,21.0,-99.9,-100.00,NW,320,22.0,85.0,-999,-99.99,,,-99.99,,2013-02-19 13:11:00,
2013-02-19 08:22:00,20.0,-99.9,-100.00,NW,320,21.0,39.0,-999,-99.99,,,-99.99,,2013-02-19 13:22:00,
2013-02-19 08:32:00,20.0,-99.9,-100.00,NW,320,19.0,56.0,-999,-99.99,,,-99.99,,2013-02-19 13:32:00,
2013-02-19 08:42:00,20.0,-99.9,-100.00,NW,320,19.0,56.0,-999,-99.99,,,-99.99,,2013-02-19 13:42:00,
2013-02-19 08:52:00,20.0,-99.9,-100.00,NW,320,19.0,32.0,-999,-99.99,,,-99.99,,2013-02-19 13:52:00,
2013-02-19 09:02:00,19.0,-99.9,-100.00,NW,315,19.0,28.0,-999,-99.99,,,-99.99,,2013-02-19 14:02:00,
2013-02-19 09:12:00,19.0,-99.9,-100.00,NW,315,19.0,28.0,-999,-99.99,,,-99.99,,2013-02-19 14:12:00,
2013-02-19 09:20:00,19.0,-99.9,-100.00,WSW,250,16.0,175.0,-999,-99.99,,,-99.99,,2013-02-19 14:20:00,
2013-02-19 09:22:00,19.0,-99.9,-100.00,NW,325,15.0,96.0,-999,-99.99,,,-99.99,,2013-02-19 14:22:00,
2013-02-19 09:33:00,19.0,-99.9,-100.00,NW,305,18.0,102.0,-999,-99.99,,,-99.99,,2013-02-19 14:33:00,
2013-02-19 09:42:00,19.0,-99.9,-100.00,NW,305,18.0,102.0,-999,-99.99,,,-99.99,,2013-02-19 14:42:00,
2013-02-19 09:52:00,19.0,-99.9,-100.00,WSW,240,19.0,30.0,-999,-99.99,,,-99.99,,2013-02-19 14:52:00,
2013-02-19 10:02:00,19.0,-99.9,-100.00,WSW,250,16.0,175.0,-999,-99.99,,,-99.99,,2013-02-19 15:02:00,
2013-02-19 10:11:00,19.0,-99.9,-100.00,WSW,250,16.0,175.0,-999,-99.99,,,-99.99,,2013-02-19 15:11:00,
2013-02-19 18:32:00,13.0,7.0,-100.00,WNW,300,14.0,36.0,74,-99.99,,,-99.99,,2013-02-19 23:32:00,
2013-02-19 18:42:00,13.0,7.0,-100.00,NW,315,15.0,29.0,77,-99.99,,,-99.99,,2013-02-19 23:42:00,
2013-02-19 18:52:00,13.0,7.0,-100.00,NW,315,15.0,29.0,77,-99.99,,,-99.99,,2013-02-19 23:52:00,
2013-02-19 19:01:00,13.0,5.0,-100.00,NNW,345,14.0,30.0,71,-99.99,,,-99.99,,2013-02-20 00:01:00,
2013-02-19 19:11:00,13.0,5.0,-100.00,NNW,345,14.0,30.0,71,-99.99,,,-99.99,,2013-02-20 00:11:00,
2013-02-19 19:21:00,13.0,4.0,-100.00,NW,305,16.0,30.0,69,-99.99,,,-99.99,,2013-02-20 00:21:00,
2013-02-19 19:32:00,12.0,3.0,-100.00,NNW,335,14.0,28.0,67,-99.99,,,-99.99,,2013-02-20 00:32:00,
2013-02-19 19:42:00,12.0,3.0,-100.00,NNW,335,14.0,28.0,67,-99.99,,,-99.99,,2013-02-20 00:42:00,
2013-02-19 19:52:00,12.0,3.0,-100.00,NNW,330,13.0,34.0,66,-99.99,,,-99.99,,2013-02-20 00:52:00,
2013-02-19 20:02:00,12.0,4.0,-100.00,NW,315,9.0,31.0,68,-99.99,,,-99.99,,2013-02-20 01:02:00,
2013-02-19 20:11:00,12.0,4.0,-100.00,NW,315,9.0,31.0,68,-99.99,,,-99.99,,2013-02-20 01:11:00,
2013-02-19 20:21:00,12.0,4.0,-100.00,NW,305,11.0,25.0,69,-99.99,,,-99.99,,2013-02-20 01:21:00,
2013-02-19 20:32:00,12.0,4.0,-100.00,WNW,295,13.0,25.0,69,-99.99,,,-99.99,,2013-02-20 01:32:00,
2013-02-19 20:42:00,12.0,4.0,-100.00,WNW,295,13.0,25.0,69,-99.99,,,-99.99,,2013-02-20 01:42:00,
2013-02-19 20:52:00,12.0,5.0,-100.00,WNW,300,17.0,29.0,73,-99.99,,,-99.99,,2013-02-20 01:52:00,
2013-02-19 21:02:00,12.0,6.0,-100.00,NW,315,12.0,26.0,77,-99.99,,,-99.99,,2013-02-20 02:02:00,
2013-02-19 21:11:00,12.0,6.0,-100.00,NW,315,12.0,26.0,77,-99.99,,,-99.99,,2013-02-20 02:11:00,
2013-02-19 21:21:00,12.0,5.0,-100.00,WNW,300,14.0,27.0,74,-99.99,,,-99.99,,2013-02-20 02:21:00,
2013-02-19 21:32:00,11.0,5.0,-100.00,WNW,295,19.0,29.0,75,-99.99,,,-99.99,,2013-02-20 02:32:00,
2013-02-19 21:42:00,11.0,5.0,-100.00,WNW,295,15.0,28.0,75,-99.99,,,-99.99,,2013-02-20 02:42:00,
2013-02-19 21:52:00,11.0,5.0,-100.00,WNW,295,15.0,28.0,75,-99.99,,,-99.99,,2013-02-20 02:52:00,
2013-02-19 22:02:00,12.0,6.0,-100.00,WNW,290,19.0,23.0,77,-99.99,,,-99.99,,2013-02-20 03:02:00,
2013-02-19 22:12:00,12.0,6.0,-100.00,WNW,290,19.0,23.0,77,-99.99,,,-99.99,,2013-02-20 03:12:00,
2013-02-19 22:22:00,12.0,6.0,-100.00,WNW,300,13.0,24.0,78,-99.99,,,-99.99,,2013-02-20 03:22:00,
2013-02-19 22:32:00,12.0,7.0,-100.00,NW,305,9.0,26.0,80,-99.99,,,-99.99,,2013-02-20 03:32:00,
2013-02-19 22:42:00,12.0,7.0,-100.00,NW,305,9.0,26.0,80,-99.99,,,-99.99,,2013-02-20 03:42:00,
2013-02-19 22:51:00,12.0,7.0,-100.00,WNW,300,16.0,26.0,79,-99.99,,,-99.99,,2013-02-20 03:51:00,
2013-02-19 23:01:00,12.0,8.0,-100.00,WNW,300,19.0,26.0,81,-99.99,,,-99.99,,2013-02-20 04:01:00,
2013-02-19 23:11:00,12.0,8.0,-100.00,WNW,300,19.0,26.0,81,-99.99,,,-99.99,,2013-02-20 04:11:00,
2013-02-19 23:21:00,12.0,8.0,-100.00,WNW,300,13.0,24.0,81,-99.99,,,-99.99,,2013-02-20 04:21:00,
2013-02-19 23:31:00,12.0,8.0,-100.00,WNW,295,21.0,30.0,84,-99.99,,,-99.99,,2013-02-20 04:31:00,
2013-02-19 23:42:00,12.0,8.0,-100.00,WNW,295,21.0,30.0,84,-99.99,,,-99.99,,2013-02-20 04:42:00,
2013-02-19 23:52:00,12.0,8.0,-100.00,WNW,300,19.0,29.0,83,-99.99,,,-99.99,,2013-02-20 04:52:00,